Regional Weather Roundup
Issued by NWS

Home | Current Version | Previous Version | Text Only | Print | Product List | Glossary On
Versions: 1 2 3 4 5 6 7 8 9 10 11 12 13 14 15 16 17 18 19 20 21 22 23 24 25 26 27 28 29 30 31 32 33 34 35 36 37 38 39 40 41 42 43 44 45 46 47 48 49 50
000
ASHW40 PHFO 091032
RWRHI

WEATHER ROUNDUP FOR HAWAII
NATIONAL WEATHER SERVICE HONOLULU HI
1200 AM HST FRI DEC 09 2016

THIS IS AN AUTOMATED REPORT THAT HAS NOT BEEN QUALITY CONTROLLED.

NOTE..."FAIR" INDICATES FEW OR NO CLOUDS BELOW 12,000 FEET WITH NO
SIGNIFICANT WEATHER AND/OR OBSTRUCTIONS TO VISIBILITY.

* - THESE SITES REPORT LIMITED FIELDS

HIZ001>004-091100-
KAUAI-NIIHAU-

CITY           SKY/WX    TMP DP  RH WIND       PRES   REMARKS
LIHUE APT      CLOUDY    69  67  93 S3        29.96F
PORT ALLEN*      N/A     72 N/A N/A E9          N/A
POIPU*           N/A     70 N/A N/A VRB1        N/A
PRINCEVILLE*     N/A     70 N/A N/A SE3         N/A
KOKOLE POINT*  NOT AVBL
MOLOAA DAIRY*    N/A     72  66  83 SE3         N/A
WAIMEA HTS*    NOT AVBL
PUU OPAE*      NOT AVBL
PUU LUA*       NOT AVBL
MAKAHA RIDGE*    N/A     66  63  88 CALM        N/A
$$

HIZ005>011-091100-
OAHU-

CITY           SKY/WX    TMP DP  RH WIND       PRES   REMARKS
HONOLULU       LGT RAIN  74  68  81 E7        29.92F
KALAELOA       LGT RAIN  71  68  90 N5        29.94S
KANEOHE MCB    PTCLDY    72  70  95 SE8       29.89F
WHEELER FIELD  MOCLDY    68  66  94 CALM      29.95R
BELLOWS*         N/A    N/A N/A N/A SE2         N/A
KAHUKU*          N/A    N/A N/A N/A E2          N/A
WHEELER*       NOT AVBL
WAIANAE HARBOR NOT AVBL
DILLINGHAM*    NOT AVBL
KAHUKU TRN*      N/A     66  66 100 W3G10       N/A
KAWAILOA*        N/A     68  63  83 SE6G12      N/A
KII*             N/A     72  72 100 E12G17      N/A
MAKUA RANGE*     N/A     75  72  88 SW8G15      N/A
OAHU FOREST NW NOT AVBL
SCHOFIELD BRK*   N/A     66  64  94 MISG        N/A
SCHOFIELD S*   NOT AVBL
WAIANAE VLY*   NOT AVBL
KUAOKALA*      NOT AVBL
HONOULIUULI*   NOT AVBL
MOKUOLOE IS*   NOT AVBL
PALEHUA*       NOT AVBL
WAIAWA PHB*    NOT AVBL
$$

HIZ012>013-091100-
MOLOKAI-

CITY           SKY/WX    TMP DP  RH WIND       PRES   REMARKS
MOLOKAI AIRPT  LGT RAIN  72  69  90 CALM      29.95F
KALAUPAPA      NOT AVBL
MAKAPULAPAI*     N/A     72  70  94 SW3         N/A
MOLOKAI 1*     NOT AVBL
PUU ALII*        N/A     60  60 100 NE1         N/A
$$

HIZ016-091100-
KAHOOLAWE-

CITY           SKY/WX    TMP DP  RH WIND       PRES   REMARKS
KAHOOLAWE*     NOT AVBL
HAKIOAWA*        N/A     70  70  99 MISG      30.36F
HONOKANAIA*      N/A     72  69  92 NW3         N/A
KANELOA*         N/A     70  68  94 N8        30.01F
KEALIALALO*    NOT AVBL
LUA MAKIKA*    NOT AVBL
$$

HIZ014>015-091100-
LANAI-

CITY           SKY/WX    TMP DP  RH WIND       PRES   REMARKS
LANAI CITY     FOG       68  68 100 CALM      30.00F VSB 3/4
LANAI 1*       NOT AVBL
$$

HIZ017>028-091100-
MAUI-

CITY           SKY/WX    TMP DP  RH WIND       PRES   REMARKS
KAHULUI        CLOUDY    73  70  88 S5        29.94F
KAPALUA-W MAUI NOT AVBL
HANA AIRPORT     N/A     72  70  94 E6        29.97S
HANA*            N/A     73 N/A N/A SE6         N/A
HALEAKALA SUMM   N/A     43  39  87 S10G31      N/A
MAALAEA BAY*     N/A     72 N/A N/A NW3         N/A
HALEAKALA*     NOT AVBL
KAUPO GAP*     NOT AVBL
KULA 1*          N/A     54  54 100 E2          N/A
$$

HIZ023>026-091100-
BIG ISLAND OF HAWAII COAST AND LOWER SLOPES-

CITY           SKY/WX    TMP DP  RH WIND       PRES   REMARKS
KAILUA KONA    LGT RAIN  72  72 100 NE7       29.94F FOG
HILO           MOCLDY    69  64  84 S3        29.95F
HONOKAA*         N/A     68 N/A N/A VRB1        N/A
KAWAIHAE MWT*    N/A     73 N/A N/A SE2         N/A
KAWAIHAE*        N/A     73 N/A N/A SE3       29.94F
SOUTH POINT*     N/A     68 N/A N/A N9          N/A
UPOLU AIRPORT* NOT AVBL
KAMUELA*       CLOUDY    64  64 100 S3        30.04F VSB 0
HAKALAU*         N/A    N/A N/A N/A SW7         N/A
KALOKO-HONOKO*   N/A     73  70  88 N7G13     29.92F
PALI 2*          N/A     61  57  88 S5          N/A
KEALAKOMO*       N/A     72  66  83 NW5         N/A
KAUPULEHU*     NOT AVBL
KAPAPALA*      NOT AVBL
LOWER KAHUKU*    N/A     57  55  94 N3          N/A
PUHE CS*         N/A     72  68  88 S2          N/A
PUHO CS*         N/A     75  68  78 E1          N/A
PTA KEAMUKU*     N/A    N/A N/A N/A CALM        N/A
WAIKOLOA*      NOT AVBL
$$

HIZ027>028-091100-
BIG ISLAND OF HAWAII INTERIOR AND SUMMMITS-

CITY           SKY/WX    TMP DP  RH WIND       PRES   REMARKS
BRADSHAW FIELD MOCLDY    52  50  93 CALM      30.25F
MK VISITOR CEN   N/A     52   5  15 E3          N/A
MAUNA KEA*       N/A     32  30  93 S12         N/A  WCI  23
MAUNA LOA*       N/A    N/A N/A N/A MISG        N/A
MAUNA LOA 1*   NOT AVBL
PTA KIPUKA*      N/A     64  64 100 S1          N/A
PTA RANGE 17*    N/A     57  55  94 E3          N/A
PTA WEST*        N/A     61  59  94 CALM        N/A
NENE CABIN*      N/A    N/A N/A N/A VRB3G9      N/A
AHUMOA*        NOT AVBL
PTA PORTABLE*  NOT AVBL
PUU MALI*        N/A     54  54 100 SW2         N/A
$$

HIC003-091100-
NORTHWEST ISLANDS-

CITY           SKY/WX    TMP DP  RH WIND       PRES   REMARKS
MIDWAY ISLAND  CLOUDY    66  57  72 CALM      30.05S
MIDWAY NOS*      N/A     72 N/A N/A MISG      30.02F
FRENCH FRIGATE NOT AVBL
$$

PHZ110>124-180-091100-
BUOY REPORTS

STATION/POSITION TIME  TEMP    WIND        PRES    WAVE   SWELL
                       AIR SEA DIR/SP/G            HT/PER HT/DIR
                 (UTC) (F)     (DEG/KT/KT) (MB)    (FT/S) (FT/D)
BUOY 51001       1010   75 78   CALM  /  2 1012.6
BUOY 51101       0950   76 78   CALM  /  2 1013.7F   6/10   7/350
BUOY 51100       NOT AVBL
BUOY 51002       1010   78 78  100/ 14/ 16 1013.1
BUOY 51003       0950   75 79  130/ 14/ 16 1013.1F   5/12   3/330
BUOY 51004       0950   76 79  100/ 14/ 16 1013.6F   5/14   5/330
BARBERS PT BUOY  NOT AVBL
WAIMEA BAY BUOY  NOT AVBL
KAILUA BAY BUOY  1004      78                N/A     4/12   2/ 10
LANAI BUOY       1015      78                N/A     3/13   2/300
BARBERS PT 2     1009      78                N/A     3/13   2/280
PAUWELA MAUI     1009      77                N/A     5/13   3/340
HILO             1012      78                N/A     5/11   3/ 10
KANEOHE BAY BUOY 1006      77                N/A     4/10   2/ 20
HANALEI KAUAI    0952      77                N/A     5/13   3/330
KAHULUI HARBOR   1000   73 78  290/  5/  5 1013.7
HONOLULU HARBOR  1000   72 78   30/  2/  8 1013.9
KILO NALU        NOT AVBL
HILO HARBOR      1000   70 76  220/  2/  3 1014.1
MOKUOLOE         0936   71     150/  2/  6   N/A
NAWILIWILI       1000   69 80   CALM  /  1 1014.1
WHOTS BUOY       NOT AVBL
BUOY 51028       NOT AVBL
$$

......................KEY........................................
  SKY/WX - SKY CONDITIONS/PRESENT WEATHER
  TMP    - TEMPERATURE IN FAHRENHEIT
  DWPT   - DEWPOINT IN FAHRENHEIT
  RH     - RELATIVE HUMIDITY IN PERCENT
  WIND   - DIRECTION AND SPEED /MPH FOR ISLANDS...KTS FOR BUOYS/
  PRES   - MEAN SEA LEVEL PRESSURE IN INCHES OF HG
  VSB    - VISIBILITY IN MILES
  HX     - HEAT INDEX
  WCI    - WIND CHILL INDEX
  VRB    - VARIABLE WIND DIRECTION
  N/A    - NOT AVAILABLE




USA.gov is the U.S. government's official web portal to all federal, state and local government web resources and services.